Total_Precipitation_Accumulation
0.56 0.51 0.63 0.75 0.69 0.73 0.97 1.00 0.90 0.57 0.51 0.59 0.59 0.58 0.55 0.52 0.49 0.51 0.64 0.67 0.67 0.71 0.74 0.78 0.88 0.96 0.95 1.01 1.11 1.26 1.45 1.58 1.63 1.64 1.76 1.86 1.91 1.94 1.90 1.99 2.04 2.00 2.02 2.05
0.55 0.37 0.45 0.57 0.49 0.52 0.57 0.56 0.61 0.50 0.56 0.59 0.56 0.51 0.51 0.52 0.51 0.53 0.64 0.69 0.71 0.72 0.76 0.80 0.87 0.94 0.93 0.93 1.03 1.17 1.35 1.44 1.51 1.63 1.75 1.92 1.99 2.07 2.07 2.07 2.11 2.09 2.04 2.04
0.91 0.46 0.69 0.86 0.60 0.53 0.54 0.53 0.55 0.63 0.65 0.59 0.56 0.54 0.55 0.54 0.55 0.56 0.56 0.60 0.66 0.74 0.79 0.82 0.85 0.87 0.91 0.91 0.93 1.03 1.21 1.31 1.39 1.55 1.64 1.75 1.82 1.87 1.93 1.89 1.88 1.93 1.97 1.89
1.30 0.96 1.32 0.78 0.48 0.46 0.49 0.54 0.55 0.59 0.60 0.60 0.64 0.63 0.58 0.57 0.59 0.59 0.57 0.56 0.58 0.70 0.77 0.75 0.78 0.84 0.86 0.86 0.88 0.97 1.08 1.19 1.22 1.37 1.52 1.57 1.63 1.67 1.70 1.66 1.69 1.80 1.78 1.66
1.68 1.26 0.77 0.43 0.37 0.50 0.59 0.66 0.59 0.55 0.53 0.52 0.55 0.57 0.61 0.59 0.57 0.60 0.59 0.56 0.58 0.66 0.71 0.71 0.75 0.81 0.80 0.81 0.82 0.90 0.99 1.06 1.08 1.16 1.35 1.39 1.48 1.57 1.55 1.58 1.60 1.61 1.59 1.51
1.81 1.40 0.76 0.44 0.29 0.35 0.53 0.76 0.54 0.49 0.53 0.55 0.56 0.76 0.74 0.66 0.63 0.62 0.57 0.56 0.60 0.65 0.64 0.67 0.73 0.74 0.73 0.74 0.78 0.85 0.91 0.99 1.00 1.03 1.15 1.18 1.24 1.33 1.37 1.40 1.47 1.52 1.52 1.46
1.49 1.20 0.58 0.37 0.29 0.33 0.80 0.94 0.52 0.49 0.56 0.60 0.71 0.82 0.75 0.69 0.67 0.64 0.63 0.61 0.61 0.62 0.65 0.69 0.73 0.74 0.74 0.74 0.76 0.81 0.84 0.88 0.93 0.98 1.06 1.08 1.11 1.17 1.25 1.32 1.39 1.45 1.48 1.43
1.11 1.25 0.70 0.36 0.38 0.66 0.82 0.51 0.46 0.48 0.51 0.56 0.57 0.55 0.57 0.61 0.61 0.59 0.61 0.62 0.61 0.63 0.68 0.70 0.70 0.69 0.68 0.75 0.75 0.76 0.82 0.88 0.92 0.96 0.99 1.01 1.06 1.14 1.16 1.27 1.41 1.42 1.39 1.40
0.84 0.78 0.58 0.46 0.54 0.58 0.48 0.44 0.40 0.43 0.47 0.50 0.52 0.52 0.56 0.57 0.57 0.58 0.59 0.59 0.60 0.64 0.68 0.68 0.68 0.67 0.67 0.73 0.74 0.75 0.80 0.85 0.92 0.98 0.99 1.04 1.07 1.14 1.19 1.29 1.43 1.43 1.36 1.33
0.57 0.46 0.40 0.40 0.40 0.41 0.40 0.41 0.39 0.41 0.46 0.47 0.51 0.51 0.54 0.54 0.56 0.56 0.55 0.54 0.54 0.58 0.64 0.66 0.68 0.70 0.70 0.72 0.74 0.77 0.80 0.81 0.86 0.97 1.04 1.05 1.08 1.14 1.17 1.24 1.40 1.47 1.43 1.38
0.51 0.36 0.32 0.31 0.31 0.36 0.39 0.36 0.35 0.37 0.40 0.43 0.44 0.46 0.49 0.53 0.54 0.56 0.56 0.54 0.52 0.55 0.61 0.67 0.68 0.70 0.72 0.77 0.81 0.83 0.80 0.80 0.83 0.93 1.01 1.04 1.09 1.14 1.20 1.20 1.42 1.60 1.51 1.49
0.50 0.35 0.39 0.34 0.29 0.30 0.35 0.35 0.33 0.35 0.37 0.36 0.37 0.43 0.44 0.47 0.50 0.52 0.54 0.54 0.54 0.53 0.60 0.65 0.68 0.71 0.76 0.84 0.87 0.87 0.86 0.85 0.87 0.94 0.97 1.00 1.04 1.12 1.23 1.24 1.32 1.33 1.38 1.46
0.38 0.31 0.32 0.29 0.25 0.24 0.29 0.31 0.30 0.32 0.37 0.39 0.36 0.38 0.44 0.46 0.47 0.48 0.49 0.51 0.55 0.57 0.60 0.63 0.65 0.69 0.78 0.88 0.91 0.90 0.92 0.93 0.95 0.96 0.96 1.00 0.97 1.02 1.14 1.17 1.19 1.20 1.24 1.31
0.28 0.27 0.28 0.22 0.21 0.20 0.23 0.26 0.25 0.26 0.29 0.34 0.38 0.38 0.42 0.45 0.44 0.45 0.47 0.49 0.50 0.54 0.57 0.59 0.61 0.67 0.76 0.88 0.94 0.95 0.96 1.01 1.04 1.01 0.99 1.00 0.97 0.96 1.01 1.13 1.25 1.29 1.31 1.35
0.22 0.23 0.25 0.20 0.18 0.17 0.19 0.21 0.23 0.25 0.26 0.29 0.33 0.38 0.42 0.45 0.45 0.44 0.45 0.45 0.44 0.47 0.52 0.55 0.59 0.67 0.74 0.84 0.93 0.99 1.04 1.05 1.07 1.07 1.05 1.02 1.00 1.01 1.02 1.06 1.16 1.29 1.38 1.47
0.25 0.21 0.19 0.18 0.17 0.17 0.19 0.22 0.26 0.28 0.29 0.31 0.33 0.36 0.43 0.47 0.47 0.45 0.44 0.45 0.47 0.48 0.51 0.56 0.60 0.68 0.76 0.85 0.94 1.03 1.13 1.21 1.20 1.15 1.12 1.09 1.07 1.08 1.10 1.13 1.17 1.22 1.33 1.43
0.32 0.27 0.23 0.21 0.19 0.19 0.22 0.27 0.31 0.32 0.32 0.33 0.35 0.37 0.40 0.43 0.44 0.43 0.44 0.45 0.49 0.52 0.53 0.56 0.65 0.70 0.76 0.84 0.96 1.08 1.17 1.21 1.24 1.19 1.16 1.16 1.17 1.18 1.19 1.22 1.25 1.24 1.26 1.36
0.32 0.32 0.30 0.30 0.28 0.26 0.24 0.24 0.27 0.30 0.33 0.36 0.36 0.37 0.40 0.44 0.49 0.50 0.49 0.47 0.46 0.46 0.50 0.56 0.67 0.72 0.75 0.84 0.96 1.06 1.14 1.17 1.14 1.15 1.18 1.23 1.27 1.26 1.26 1.27 1.25 1.27 1.29 1.34
0.25 0.26 0.25 0.24 0.25 0.27 0.26 0.27 0.28 0.29 0.31 0.34 0.36 0.38 0.41 0.47 0.52 0.55 0.53 0.50 0.48 0.50 0.56 0.61 0.71 0.70 0.77 0.89 1.01 1.06 1.13 1.16 1.14 1.15 1.18 1.27 1.26 1.20 1.22 1.24 1.28 1.29 1.28 1.30
0.22 0.24 0.24 0.23 0.23 0.26 0.28 0.27 0.27 0.27 0.29 0.32 0.34 0.35 0.38 0.44 0.51 0.55 0.53 0.52 0.57 0.63 0.64 0.68 0.67 0.68 0.78 0.93 1.07 1.09 1.11 1.12 1.13 1.17 1.20 1.21 1.21 1.22 1.21 1.22 1.28 1.35 1.33 1.31
0.24 0.25 0.25 0.26 0.25 0.24 0.26 0.28 0.30 0.30 0.32 0.35 0.40 0.43 0.45 0.49 0.52 0.55 0.55 0.55 0.57 0.60 0.63 0.66 0.68 0.77 0.89 1.04 1.08 1.05 1.07 1.10 1.13 1.20 1.24 1.24 1.25 1.24 1.23 1.23 1.28 1.34 1.34 1.32
0.28 0.30 0.30 0.29 0.29 0.28 0.29 0.31 0.33 0.34 0.35 0.38 0.42 0.46 0.49 0.51 0.54 0.54 0.56 0.62 0.66 0.70 0.66 0.62 0.71 0.89 1.05 1.07 0.99 0.99 1.02 1.06 1.13 1.21 1.27 1.27 1.28 1.28 1.24 1.24 1.31 1.31 1.29 1.29
0.33 0.35 0.36 0.38 0.40 0.40 0.37 0.37 0.39 0.41 0.43 0.46 0.49 0.52 0.54 0.57 0.60 0.62 0.63 0.63 0.66 0.70 0.67 0.69 0.78 0.93 1.00 0.95 0.90 0.92 0.96 1.02 1.10 1.21 1.28 1.31 1.32 1.31 1.30 1.28 1.31 1.33 1.33 1.30
0.36 0.38 0.41 0.43 0.43 0.41 0.41 0.42 0.43 0.47 0.50 0.52 0.56 0.58 0.59 0.59 0.58 0.59 0.64 0.66 0.68 0.70 0.69 0.74 0.81 0.89 0.92 0.86 0.84 0.89 0.96 1.03 1.13 1.23 1.29 1.32 1.33 1.32 1.33 1.36 1.41 1.37 1.32 1.27
0.40 0.41 0.42 0.43 0.45 0.47 0.47 0.44 0.42 0.43 0.46 0.49 0.52 0.53 0.56 0.61 0.69 0.68 0.64 0.64 0.67 0.69 0.68 0.73 0.78 0.83 0.83 0.82 0.84 0.91 0.99 1.11 1.27 1.40 1.42 1.39 1.34 1.33 1.33 1.38 1.43 1.40 1.34 1.29
0.47 0.48 0.50 0.52 0.54 0.55 0.53 0.50 0.50 0.49 0.51 0.50 0.49 0.51 0.54 0.59 0.66 0.69 0.67 0.65 0.66 0.70 0.71 0.75 0.78 0.80 0.80 0.83 0.88 0.94 1.02 1.11 1.25 1.35 1.33 1.32 1.31 1.33 1.34 1.37 1.37 1.36 1.34 1.30
0.52 0.51 0.50 0.51 0.52 0.55 0.59 0.61 0.62 0.63 0.64 0.64 0.61 0.57 0.59 0.63 0.66 0.67 0.64 0.64 0.65 0.68 0.72 0.77 0.80 0.81 0.82 0.86 0.93 0.98 1.02 1.08 1.21 1.34 1.34 1.32 1.33 1.35 1.33 1.33 1.34 1.35 1.34 1.32